Location: Drocourt
(49.0571°N, 1.7669°E)
Time: 06:56:53
(UTC+00:00)

IGS 5A - Pass Details

Date: 09 February 2023
Orbit: 578 x 583 km, 97.5° (Epoch: 27 March)

Event Time Altitude Azimuth Distance (km) Brightness Sun altitude
Exits shadow 18:51:49 25° 141° (SE) 1,186 4.7 -18.2°
Maximum altitude 18:54:00 56° 72° (ENE) 698 3.4 -18.6°
Drops below altitude 10° 18:58:02 10° 355° (N) 1,907 6.1 -19.3°
Sets 19:00:14 0° 351° (N) 2,810 7.1 -19.6°
